TimePST,TemperatureF,Dew PointF,Humidity,Sea Level PressureIn,VisibilityMPH,Wind Direction,Wind SpeedMPH,Gust SpeedMPH,PrecipitationIn,Events,Conditions,WindDirDegrees,DateUTC
12:53 AM,39.9,36.0,86,30.14,10.0,SE,3.5,-,N/A,,Partly Cloudy,140,2012-12-07 08:53:00
1:53 AM,42.1,36.0,79,30.14,10.0,Calm,Calm,-,N/A,,Overcast,0,2012-12-07 09:53:00
2:53 AM,39.9,35.1,83,30.13,10.0,SE,3.5,-,N/A,,Partly Cloudy,130,2012-12-07 10:53:00
3:53 AM,39.9,33.1,77,30.12,10.0,Calm,Calm,-,N/A,,Clear,0,2012-12-07 11:53:00
4:53 AM,39.0,33.1,79,30.12,10.0,ESE,6.9,-,N/A,,Mostly Cloudy,120,2012-12-07 12:53:00
5:53 AM,37.0,32.0,82,30.10,10.0,SE,6.9,-,N/A,,Clear,130,2012-12-07 13:53:00
6:53 AM,36.0,33.1,89,30.09,10.0,North,3.5,-,N/A,,Clear,360,2012-12-07 14:53:00
7:53 AM,36.0,33.1,89,30.08,10.0,Calm,Calm,-,N/A,,Partly Cloudy,0,2012-12-07 15:53:00
8:53 AM,37.9,35.1,89,30.09,10.0,Calm,Calm,-,0.00,Rain,Light Rain,0,2012-12-07 16:53:00
9:53 AM,42.1,36.0,79,30.06,10.0,Calm,Calm,-,0.00,,Scattered Clouds,0,2012-12-07 17:53:00
10:53 AM,46.0,39.0,76,30.05,10.0,Calm,Calm,-,N/A,,Overcast,0,2012-12-07 18:53:00
11:53 AM,50.0,37.9,63,30.01,10.0,West,11.5,19.6,N/A,,Overcast,280,2012-12-07 19:53:00
12:53 PM,53.1,37.0,55,29.99,10.0,West,24.2,33.4,N/A,,Clear,280,2012-12-07 20:53:00
1:53 PM,52.0,37.9,59,29.97,10.0,WNW,23.0,29.9,N/A,,Clear,290,2012-12-07 21:53:00
2:53 PM,50.0,39.0,66,29.99,10.0,NW,24.2,29.9,0.00,Rain,Light Rain,310,2012-12-07 22:53:00
3:53 PM,46.9,37.9,71,30.01,10.0,WNW,25.3,31.1,0.00,,Partly Cloudy,290,2012-12-07 23:53:00
4:53 PM,46.0,37.9,73,30.04,10.0,West,17.3,-,0.02,,Partly Cloudy,280,2012-12-08 00:53:00
5:53 PM,46.9,35.1,63,30.05,10.0,WNW,19.6,31.1,N/A,,Partly Cloudy,290,2012-12-08 01:53:00
6:53 PM,46.0,35.1,66,30.09,10.0,WNW,20.7,26.5,N/A,,Mostly Cloudy,290,2012-12-08 02:53:00
7:53 PM,45.0,33.1,63,30.09,10.0,WNW,20.7,33.4,N/A,,Clear,300,2012-12-08 03:53:00
8:53 PM,45.0,30.0,56,30.11,10.0,WNW,24.2,32.2,N/A,,Partly Cloudy,300,2012-12-08 04:53:00
9:53 PM,44.1,30.0,58,30.13,10.0,NW,23.0,33.4,N/A,,Clear,310,2012-12-08 05:53:00
10:53 PM,44.1,28.9,55,30.14,10.0,WNW,18.4,29.9,N/A,,Clear,290,2012-12-08 06:53:00
11:53 PM,43.0,28.9,58,30.15,10.0,WNW,19.6,28.8,N/A,,Clear,300,2012-12-08 07:53:00